User: anonymous   Login
Location: ????????
(54.9045°N, 39.1041°E)
Time: 15:13:23
(UTC+00:00)
Language:

ISS - Orbit

View from above orbital plane
View from above orbital plane
View from above satellite
View from above satellite

Ground track
Ground track

The orbit data is extracted from the following two-line orbital elements,

1 25544U 98067A   24206.31145938  .00018686  00000-0  33154-3 0  9996
2 25544  51.6398 131.4133 0010223 100.6505  92.3128 15.50217074464309
Epoch (UTC): 24 July 2024 07:28:30
Eccentricity: 0.0010223
inclination: 51.6398°
perigee height: 409 km
apogee height: 423 km
right ascension of ascending node: 131.4133°
argument of perigee: 100.6505°
revolutions per day: 15.50217074
mean anomaly at epoch: 92.3128°
orbit number at epoch: 46430

The dashed part of the orbit path shows where the satellite is in the earth's shadow,  

DLR